Regional Weather Roundup
Issued by NWS

Home | Current Version | Previous Version | Text Only | Print | Product List | Glossary Off
Versions: 1 2 3 4 5 6 7 8 9 10 11 12 13 14 15 16 17 18 19 20 21 22 23 24 25 26 27 28 29 30 31 32 33 34 35 36 37 38 39 40 41 42 43 44 45 46 47 48 49 50

000
ASUS45 KCYS 191410
RWRWY

WYOMING REGIONAL WEATHER ROUNDUP
NATIONAL WEATHER SERVICE CHEYENNE WY
800 AM MDT TUE AUG 19 2014

NOTE:  "FAIR" INDICATES FEW OR NO CLOUDS BELOW 12,000 FEET
WITH NO SIGNIFICANT WEATHER AND/OR OBSTRUCTIONS TO VISIBILITY.

WYZ001-191500-
YELLOWSTONE NATIONAL PARK

CITY           SKY/WX    TMP DP  RH WIND       PRES   REMARKS
LK YELLOWSTONE   N/A     44  40  85 CALM      30.16F
W YELLOWSTONE  NOT AVBL

$$
WYZ002>013-054>058-071-098>099-191500-
NORTHERN WYOMING

CITY           SKY/WX    TMP DP  RH WIND       PRES   REMARKS
JACKSON        SUNNY     48  39  71 CALM      30.09S
CODY           SUNNY     66  41  39 S6        29.93S
GREYBULL       MOSUNNY   59  48  67 SE3       29.88S
WORLAND        MOSUNNY   61  41  47 S7        29.89S
SHERIDAN       MOSUNNY   60  51  72 CALM      29.86S
BUFFALO        MOSUNNY   69  41  36 SW5       29.93S
GILLETTE       MOSUNNY   67  50  54 S12       29.90F
HULETT         FAIR      64  52  63 MISG      29.91
NEWCASTLE      FAIR      70  48  46 MISG      29.91

$$
WYZ014>020-022>026-101>103-191500-
CENTRAL WYOMING

CITY           SKY/WX    TMP DP  RH WIND       PRES   REMARKS
BIG PINEY      PTSUNNY   50  38  63 E3        30.10F
PINEDALE       MOSUNNY   46  37  71 W5        30.12R
DUBOIS         FAIR      50  36  57 NW6       30.09F
LANDER         MOSUNNY   62  39  42 W5        29.97S
RIVERTON       SUNNY     65  37  35 W10       29.99S
CASPER         SUNNY     63  43  48 S7        29.97F
DOUGLAS        SUNNY     58  46  64 NW6       29.97S

$$
WYZ021-027>030-104>119-191500-
SOUTHERN WYOMING

CITY           SKY/WX    TMP DP  RH WIND       PRES   REMARKS
EVANSTON       CLOUDY    62  42  47 W13       30.12R
KEMMERER       CLOUDY    54  37  54 N12       30.12S
FORT BRIDGER   PTSUNNY   64  40  42 W8        30.14S
ROCK SPRINGS   CLOUDY    60  33  36 CALM      30.08R
DIXON          FAIR      54  38  55 CALM      30.12S
RAWLINS        PTSUNNY   58  34  40 CALM      30.09S
SARATOGA       FAIR      59  36  41 MISG      30.12R
LARAMIE        MOSUNNY   57  39  51 SW8       30.12R
CHEYENNE       SUNNY     64  51  62 W7        30.02F
TORRINGTON     SUNNY     63  55  75 SE8       29.90F
PINE BLUFFS    FAIR      59  54  82 E3        29.98F

$$


USA.gov is the U.S. government's official web portal to all federal, state and local government web resources and services.